Location: Hradec Kralove
(50.2170°N, 15.8330°E)
Time: 16:11:37
(UTC+01:00)

Explorer 11/Cluster Stage 4 - Pass Details

Date: 01 February 2023
Orbit: 466 x 1241 km, 28.8° (Epoch: 20 March)

Event Time Altitude Azimuth Distance (km) Brightness Sun altitude
Rises 08:06:29 0° 235° (SW) 4,161 10.1 4.0°
Maximum altitude 08:14:41 13° 186° (S) 2,824 9.9 5.1°
Drops below altitude 10° 08:17:56 10° 160° (SSE) 2,981 10.6 5.6°
Sets 08:22:17 0° 135° (SE) 3,783 12.4 6.1°
